Skip Page Navigation
NASA JPL Caltech
NASA Logo - Jet Propulsion Laboratory + View the NASA Portal
+ Center for Near-Earth Object Studies
JPL Home Earth Solar System Stars & Galaxies Technology
JPL Solar System Dynamics
BODIES ORBITS EPHEMERIDES TOOLS PHYSICAL DATA DISCOVERY FAQ SITE MAP
IMPORTANT: The SSD Announcement email list is now available. Major changes are coming in the near future, including possible hostname and/or URL changes. To be notified of such changes, subscribe to this email list.

Please visit this page for more details.


JPL Small-Body Database Browser
Search: [ help ]  
215505 (2002 TZ363)
Classification: Main-belt Asteroid          SPK-ID: 2215505
Ephemeris | Orbit Diagram | Orbital Elements | Mission Design | Physical Parameters | Discovery Circumstances | Close-Approach Data ]

[ show orbit diagram ]
Orbital Elements at Epoch 2458600.5 (2019-Apr-27.0) TDB
Reference: JPL 10 (heliocentric ecliptic J2000)
 Element Value Uncertainty (1-sigma)   Units 
e .04219411947037407 6.3821e-08  
a 2.626872042478386 1.8363e-08 au
q 2.516033489684667 1.6962e-07 au
i 3.742403156649505 4.8941e-06 deg
node 118.7896388658106 0.0001155 deg
peri 26.1310207248464 0.0001426 deg
M 193.6307837441862 8.362e-05 deg
tp 2459319.166290371944
(2021-Apr-14.66629037)
0.00036283 TDB
period 1555.094568312958
4.26
1.6306e-05
4.464e-08
d
yr
n .2314971753714923 2.4274e-09 deg/d
Q 2.737710595272104 1.9138e-08 au
  Orbit Determination Parameters
   # obs. used (total)      222  
   data-arc span      8602 days (23.55 yr)  
   first obs. used      1996-04-09  
   last obs. used      2019-10-28  
   planetary ephem.      DE431  
   SB-pert. ephem.      SB431-N16  
   condition code      0  
   norm. resid. RMS      .60253  
   source      ORB  
   producer      Otto Matic  
   solution date      2019-Nov-07 23:58:52  

Additional Information
 Earth MOID = 1.52921 au 
 Jupiter MOID = 2.24846 au 
 T_jup = 3.398 
[ show covariance matrix ]

Ephemeris | Orbit Diagram | Orbital Elements | Mission Design | Physical Parameters | Discovery Circumstances | Close-Approach Data ]

Physical Parameter Table
Parameter Symbol Value Units Sigma Reference Notes
absolute magnitude H 16.8   n/a MPO260380  

215505 (2002 TZ363)          Discovered 2002-Oct-10 by Sloan Digital Sky Survey at Apache Point
Reference: 20090607/Numbers.arcLast Updated: 2009-06-08

[ show close-approach data ]
Alternate Designations
 2002 TZ363 = 2004 BK133 
Ephemeris | Orbit Diagram | Orbital Elements | Mission Design | Physical Parameters | Discovery Circumstances | Close-Approach Data ]
ABOUT SSD CREDITS/AWARDS PRIVACY/COPYRIGHT GLOSSARY LINKS
FirstGov
(server date/time)  
NASA Home Page
Site Manager:   Ryan S. Park
Webmaster  Alan B. Chamberlin